SBONWEB Weather Reports


Display with metric or nautical units.
time (UTC)temp
F
wind
direction
speed
MPH
gust
MPH
rain 1hr
in
rain 24hr
in
rain mn
in
humidity
%
barometer
mb
20260903211804 71 0 1.0 0.0 0.00 0.00 0.00 70 1020.3
20260903210903 71 226 1.0 2.0 0.00 0.00 0.00 71 1020.2
20260903210003 71 237 1.0 2.0 0.00 0.00 0.00 70 1020.2
20260903205403 72 246 1.0 2.0 0.00 0.00 0.00 70 1020.1
20260903204718 72 251 1.0 2.0 0.00 0.00 0.00 69 1020.3
20260903203603 72 314 2.0 3.0 0.00 0.00 0.00 70 1020.2
20260903202703 72 278 1.0 3.0 0.00 0.00 0.00 70 1020.2
20260903202018 71 255 1.0 2.0 0.00 0.00 0.00 71 1020.1
20260903200903 71 247 1.0 2.0 0.00 0.00 0.00 71 1020.1
20260903200216 71 210 1.0 2.0 0.00 0.00 0.00 71 1020.0
20260903195403 72 227 2.0 2.0 0.00 0.00 0.00 71 1020.0
20260903194503 72 218 1.0 2.0 0.00 0.00 0.00 69 1020.0
20260903193603 72 228 1.0 2.0 0.00 0.00 0.00 70 1019.9
20260903192918 72 226 1.0 3.0 0.00 0.00 0.00 70 1019.9
20260903191803 72 221 0.0 2.0 0.00 0.00 0.00 71 1019.8
20260903190903 72 221 0.0 1.0 0.00 0.00 0.00 70 1019.7
20260903190003 73 0 0.0 0.0 0.00 0.00 0.00 70 1019.6
20260903185403 73 221 0.0 1.0 0.00 0.00 0.00 69 1019.6
20260903184503 73 221 0.0 2.0 0.00 0.00 0.00 69 1019.6
20260903183603 74 0 0.0 0.0 0.00 0.00 0.00 68 1019.5
20260903182703 74 0 0.0 0.0 0.00 0.00 0.00 68 1019.4
20260903181803 75 0 0.0 0.0 0.00 0.00 0.00 68 1019.3
20260903180903 76 0 0.0 0.0 0.00 0.00 0.00 66 1019.3
20260903180003 76 0 0.0 0.0 0.00 0.00 0.00 64 1019.0
20260903175404 77 201 0.0 2.0 0.00 0.00 0.00 62 1019.0
20260903174503 78 200 1.0 1.0 0.00 0.00 0.00 62 1018.9
20260903173603 80 193 1.0 2.0 0.00 0.00 0.00 62 1018.9
20260903172703 80 189 1.0 2.0 0.00 0.00 0.00 60 1018.9
20260903171804 81 189 0.0 2.0 0.00 0.00 0.00 60 1019.0
20260903170903 82 0 0.0 0.0 0.00 0.00 0.00 59 1019.0
20260903170003 83 0 0.0 0.0 0.00 0.00 0.00 56 1019.0
20260903165403 84 166 1.0 3.0 0.00 0.00 0.00 53 1018.9
20260903164504 84 167 0.0 4.0 0.00 0.00 0.00 48 1018.9
20260903163603 85 171 2.0 3.0 0.00 0.00 0.00 47 1018.9
20260903162703 85 172 2.0 4.0 0.00 0.00 0.00 46 1018.9
20260903161803 86 180 2.0 5.0 0.00 0.00 0.00 46 1018.9
20260903160904 87 178 2.0 6.0 0.00 0.00 0.00 44 1018.9
20260903160217 87 179 2.0 5.0 0.00 0.00 0.00 43 1018.9
20260903155403 87 177 2.0 5.0 0.00 0.00 0.00 41 1019.0
20260903154503 87 177 2.0 6.0 0.00 0.00 0.00 40 1019.1
20260903153603 87 160 2.0 6.0 0.00 0.00 0.00 42 1019.1
20260903152703 87 147 2.0 5.0 0.00 0.00 0.00 45 1019.1
20260903151803 86 152 2.0 6.0 0.00 0.00 0.00 44 1019.1
20260903150904 86 213 3.0 5.0 0.00 0.00 0.00 44 1019.1
20260903150003 87 197 3.0 6.0 0.00 0.00 0.00 44 1019.1
20260903145618 87 181 2.0 6.0 0.00 0.00 0.00 44 1019.2
20260903144503 88 194 2.0 4.0 0.00 0.00 0.00 45 1019.2
20260903143603 88 157 2.0 7.0 0.00 0.00 0.00 44 1019.1
20260903142703 87 161 2.0 6.0 0.00 0.00 0.00 41 1019.1
20260903141803 87 160 2.0 5.0 0.00 0.00 0.00 41 1019.2
20260903141117 87 148 2.0 5.0 0.00 0.00 0.00 42 1019.3
20260903140218 86 194 2.0 5.0 0.00 0.00 0.00 41 1019.4
20260903135622 86 193 2.0 5.0 0.00 0.00 0.00 40 1019.5
20260903134504 86 181 2.0 4.0 0.00 0.00 0.00 42 1019.7
20260903133818 85 172 2.0 5.0 0.00 0.00 0.00 42 1019.7
20260903132918 85 161 2.0 4.0 0.00 0.00 0.00 42 1019.8
20260903131803 85 129 3.0 6.0 0.00 0.00 0.00 43 1019.9
20260903130903 86 126 3.0 8.0 0.00 0.00 0.00 45 1020.0
20260903130003 85 123 2.0 8.0 0.00 0.00 0.00 44 1020.2
20260903125403 86 189 2.0 5.0 0.00 0.00 0.00 44 1020.2
20260903124503 86 176 2.0 6.0 0.00 0.00 0.00 46 1020.2
20260903123603 85 132 2.0 5.0 0.00 0.00 0.00 44 1020.2
20260903122703 85 95 2.0 6.0 0.00 0.00 0.00 45 1020.2
20260903121804 85 124 2.0 6.0 0.00 0.00 0.00 46 1020.4
20260903120903 84 137 3.0 7.0 0.00 0.00 0.00 46 1020.4
20260903120003 85 171 2.0 8.0 0.00 0.00 0.00 47 1020.5
20260903115403 85 219 3.0 6.0 0.00 0.00 0.00 48 1020.4
20260903114503 84 187 2.0 7.0 0.00 0.00 0.00 48 1020.5
20260903113603 84 140 2.0 5.0 0.00 0.00 0.00 51 1020.6
20260903112703 84 108 3.0 6.0 0.00 0.00 0.00 51 1020.7
20260903112016 84 106 3.0 8.0 0.00 0.00 0.00 45 1020.6
20260903110903 84 97 2.0 7.0 0.00 0.00 0.00 46 1020.5
20260903110003 83 158 2.0 5.0 0.00 0.00 0.00 49 1020.7
20260903105403 83 153 2.0 4.0 0.00 0.00 0.00 47 1020.7
20260903104718 83 171 2.0 6.0 0.00 0.00 0.00 50 1020.8
20260903103604 83 164 1.0 5.0 0.00 0.00 0.00 49 1021.0
20260903102703 83 168 1.0 5.0 0.00 0.00 0.00 48 1021.1
20260903102018 83 159 2.0 5.0 0.00 0.00 0.00 49 1021.2
20260903100903 82 108 2.0 6.0 0.00 0.00 0.00 48 1021.3
20260903100217 82 118 2.0 4.0 0.00 0.00 0.00 50 1021.3
20260903095403 82 99 2.0 6.0 0.00 0.00 0.00 48 1021.5
20260903094503 82 41 2.0 5.0 0.00 0.00 0.00 49 1021.5
20260903093603 82 15 2.0 5.0 0.00 0.00 0.00 48 1021.2
20260903092703 81 17 2.0 5.0 0.00 0.00 0.00 49 1021.3
20260903091803 81 40 2.0 5.0 0.00 0.00 0.00 50 1021.4
20260903090903 81 343 2.0 7.0 0.00 0.00 0.00 52 1021.5
20260903090003 80 91 2.0 6.0 0.00 0.00 0.00 53 1021.4
20260903085618 80 98 2.0 6.0 0.00 0.00 0.00 53 1021.5
20260903084503 80 23 2.0 4.0 0.00 0.00 0.00 54 1021.4
20260903083603 79 52 2.0 4.0 0.00 0.00 0.00 54 1021.3
20260903082703 79 298 3.0 7.0 0.00 0.00 0.00 54 1021.2
20260903081803 78 355 4.0 7.0 0.00 0.00 0.00 55 1021.2
20260903080903 77 18 4.0 8.0 0.00 0.00 0.00 55 1021.4
20260903080218 77 22 5.0 9.0 0.00 0.00 0.00 55 1021.3
20260903075403 77 5 4.0 8.0 0.00 0.00 0.00 57 1021.2
20260903074503 76 348 4.0 7.0 0.00 0.00 0.00 58 1021.1
20260903073603 76 335 4.0 8.0 0.00 0.00 0.00 59 1021.0
20260903072918 76 4 4.0 5.0 0.00 0.00 0.00 58 1021.0
20260903071804 75 4 5.0 8.0 0.00 0.00 0.00 58 1021.0
20260903070903 74 344 4.0 8.0 0.00 0.00 0.00 58 1020.9
20260903070004 74 351 5.0 8.0 0.00 0.00 0.00 58 1021.0
20260903065403 73 359 5.0 8.0 0.00 0.00 0.00 59 1021.0
20260903064503 73 357 4.0 8.0 0.00 0.00 0.00 59 1021.1
20260903063603 73 3 5.0 7.0 0.00 0.00 0.00 61 1021.0
20260903062917 72 351 5.0 9.0 0.00 0.00 0.00 60 1020.9
20260903061804 72 349 5.0 8.0 0.00 0.00 0.00 62 1021.0
20260903060903 71 348 5.0 9.0 0.00 0.00 0.00 61 1020.7
20260903060004 71 349 5.0 9.0 0.00 0.00 0.00 62 1020.8
20260903055403 70 358 5.0 8.0 0.00 0.00 0.00 63 1020.7
20260903054503 70 352 5.0 9.0 0.00 0.00 0.00 65 1020.5
20260903053603 70 6 5.0 10.0 0.00 0.00 0.00 66 1020.4
20260903052703 69 352 4.0 9.0 0.00 0.00 0.00 66 1020.5
20260903051803 69 348 4.0 7.0 0.00 0.00 0.00 67 1020.4
20260903050904 68 330 3.0 7.0 0.00 0.00 0.00 68 1020.4
20260903050003 68 341 2.0 6.0 0.00 0.00 0.00 69 1020.3
20260903045618 68 359 2.0 6.0 0.00 0.00 0.00 69 1020.3
20260903044503 68 360 2.0 5.0 0.00 0.00 0.00 69 1020.1
20260903043603 68 16 2.0 3.0 0.00 0.00 0.00 69 1019.9
20260903042703 68 8 2.0 3.0 0.00 0.00 0.00 70 1020.0
20260903042018 68 5 3.0 4.0 0.00 0.00 0.00 70 1019.8
20260903041117 68 333 1.0 5.0 0.00 0.00 0.00 70 1019.8
20260903040003 68 282 2.0 4.0 0.00 0.00 0.00 70 1019.7
20260903035403 68 319 1.0 5.0 0.00 0.00 0.00 70 1019.7
20260903034503 68 315 2.0 4.0 0.00 0.00 0.00 70 1019.7
20260903033604 69 10 3.0 4.0 0.00 0.00 0.00 69 1019.8
20260903032703 69 6 2.0 4.0 0.00 0.00 0.00 68 1019.6
20260903031803 68 12 2.0 4.0 0.00 0.00 0.00 70 1019.6
20260903030903 68 21 1.0 4.0 0.00 0.00 0.00 72 1019.5
20260903030003 68 264 1.0 2.0 0.00 0.00 0.00 72 1019.5
20260903025404 69 234 1.0 2.0 0.00 0.00 0.00 71 1019.4
20260903024503 70 319 3.0 3.0 0.00 0.00 0.00 69 1019.5
20260903023604 71 6 4.0 8.0 0.00 0.00 0.00 66 1019.5
20260903022703 71 2 4.0 8.0 0.00 0.00 0.00 66 1019.5
20260903021803 71 350 4.0 9.0 0.00 0.00 0.00 67 1019.6
20260903020903 71 340 5.0 9.0 0.00 0.00 0.00 69 1019.5
20260903015404 70 259 1.0 8.0 0.00 0.00 0.00 73 1019.6
20260903014503 70 229 3.0 5.0 0.00 0.00 0.00 71 1019.5
20260903013603 70 339 3.0 7.0 0.00 0.00 0.00 72 1019.6
20260903012703 69 336 3.0 9.0 0.00 0.00 0.00 74 1019.6
20260903011803 68 226 2.0 4.0 0.00 0.00 0.00 77 1019.6
20260903011118 68 218 2.0 4.0 0.00 0.00 0.00 78 1019.6
20260903010003 68 206 2.0 4.0 0.00 0.00 0.00 79 1019.5
20260903005618 68 204 2.0 3.0 0.00 0.00 0.00 79 1019.6
20260903004503 68 204 1.0 3.0 0.00 0.00 0.00 78 1019.5
20260903003603 69 228 1.0 2.0 0.00 0.00 0.00 76 1019.5
20260903002703 70 301 2.0 4.0 0.00 0.00 0.00 76 1019.6
20260903001804 70 288 2.0 3.0 0.00 0.00 0.00 76 1019.5
20260903000903 70 253 1.0 4.0 0.00 0.00 0.00 76 1019.6
20260903000003 70 269 1.0 2.0 0.00 0.00 0.00 75 1019.5
20260902235403 71 220 1.0 2.0 0.00 0.00 0.00 74 1019.5
20260902234503 72 222 2.0 4.0 0.00 0.00 0.00 72 1019.5
20260902233603 72 314 2.0 8.0 0.00 0.00 0.00 71 1019.4
20260902232916 72 360 1.0 8.0 0.00 0.00 0.00 71 1019.4
20260902231804 72 227 1.0 3.0 0.00 0.00 0.00 71 1019.3
20260902230903 72 233 3.0 7.0 0.00 0.00 0.00 71 1019.4
20260902230003 72 284 3.0 9.0 0.00 0.00 0.00 71 1019.4
20260902225618 72 314 2.0 9.0 0.00 0.00 0.00 71 1019.4
20260902224503 72 247 2.0 6.0 0.00 0.00 0.00 72 1019.4
20260902223603 72 264 2.0 5.0 0.00 0.00 0.00 73 1019.4
20260902222704 72 241 2.0 7.0 0.00 0.00 0.00 73 1019.3
20260902222018 72 274 2.0 7.0 0.00 0.00 0.00 74 1019.4
20260902220903 72 247 1.0 7.0 0.00 0.00 0.00 74 1019.4
20260902220004 72 234 1.0 4.0 0.00 0.00 0.00 74 1019.4
20260902215403 72 232 1.0 4.0 0.00 0.00 0.00 75 1019.4
20260902214503 71 287 1.0 3.0 0.00 0.00 0.00 75 1019.3
20260902213604 72 231 0.0 3.0 0.00 0.00 0.00 75 1019.3
20260902212703 72 235 1.0 1.0 0.00 0.00 0.00 75 1019.2